Tracking 35048 objects as of 19-Aug-2026
HD Live streaming from Space Station
objects crossing your sky now

LEMUR 2 CARLSANTAMARI


LEMUR 2 CARLSANTAMARI is no longer on orbit
LEMUR 2 CARLSANTAMARI is classified as:


NORAD ID: 48959
Int'l Code: 2021-059CJ
Launch date: June 30, 2021
Source: United States (US)
Launch site: AIR FORCE EASTERN TEST RANGE (AFETR)
Decay date: 2023-08-14
Your satellite tracking list
Your tracking list is empty




NASA's NSSDC Master Catalog

Two Line Element Set (TLE):
1 48959U 21059CJ  23226.20002506  .08131465  26458-5  79689-3 0  9992
2 48959  97.5723  16.2391 0015235 284.8477  75.1133 16.37941658119054
Source of the keplerian elements: AFSPC